When you browse on this site, cookies collect data to enhance your experience and personalize the content and advertising you see.
Visit our Privacy Policy to learn more. By continuing to use the site, you agree to this use of cookies and data.
  • en France
  • Liste des pays
  • À 7 jours
  • Température de l'eau
  • Carte météo
  • Widgets météo
  • user-avatar
    Se connecter

    Météo par heure à Biskra

    Ce jour, 25 Février, Mardi

    Heure Température Précipitation Vent Pression Humidité
    00:00 +15°C° 0 mm 0 m/s 757 mmHg 35%
    01:00 +15°C° 0 mm 0 m/s 757 mmHg 35%
    02:00 +14°C° 0 mm 0 m/s 756 mmHg 35%
    03:00 +14°C° 0 mm 0 m/s 756 mmHg 36%
    04:00 +15°C° 0 mm 1 m/s 756 mmHg 36%
    05:00 +15°C° 0 mm 1 m/s 756 mmHg 36%
    06:00 +15°C° 0 mm 2 m/s 756 mmHg 36%
    07:00 +16°C° 0 mm 2 m/s 756 mmHg 33%
    08:00 +18°C° 0 mm 2 m/s 756 mmHg 30%
    09:00 +19°C° 0 mm 3 m/s 755 mmHg 27%
    10:00 +20°C° 0 mm 2 m/s 755 mmHg 25%
    11:00 +21°C° 0 mm 2 m/s 755 mmHg 23%
    12:00 +23°C° 0 mm 2 m/s 755 mmHg 22%
    13:00 +24°C° 0 mm 2 m/s 754 mmHg 21%
    14:00 +24°C° 0 mm 1 m/s 753 mmHg 20%
    15:00 +25°C° 0 mm 1 m/s 752 mmHg 19%
    16:00 +23°C° 0 mm 1 m/s 752 mmHg 22%
    17:00 +22°C° 0 mm 1 m/s 752 mmHg 24%
    18:00 +21°C° 0 mm 1 m/s 752 mmHg 27%
    19:00 +20°C° 0 mm 1 m/s 752 mmHg 27%
    20:00 +19°C° 0 mm 2 m/s 753 mmHg 27%
    21:00 +19°C° 0 mm 2 m/s 753 mmHg 27%
    22:00 +19°C° 0 mm 3 m/s 753 mmHg 31%
    23:00 +18°C° 0 mm 4 m/s 753 mmHg 34%

    Demain, 26 Février, Mercredi

    Heure Température Précipitation Vent Pression Humidité
    00:00 +17°C° 0 mm 5 m/s 753 mmHg 38%
    01:00 +16°C° 0 mm 5 m/s 753 mmHg 40%
    02:00 +16°C° 0 mm 5 m/s 752 mmHg 41%
    03:00 +15°C° 0 mm 5 m/s 752 mmHg 43%
    04:00 +15°C° 0 mm 6 m/s 752 mmHg 43%
    05:00 +14°C° 0 mm 6 m/s 752 mmHg 43%
    06:00 +14°C° 0 mm 6 m/s 752 mmHg 43%
    07:00 +16°C° 0 mm 6 m/s 752 mmHg 40%
    08:00 +17°C° 0 mm 6 m/s 752 mmHg 36%
    09:00 +20°C° 0 mm 6 m/s 752 mmHg 32%
    10:00 +21°C° 0 mm 7 m/s 752 mmHg 30%
    11:00 +22°C° 0 mm 7 m/s 752 mmHg 28%
    12:00 +23°C° 0 mm 8 m/s 752 mmHg 26%
    13:00 +24°C° 0 mm 8 m/s 752 mmHg 26%
    14:00 +24°C° 0 mm 8 m/s 751 mmHg 26%
    15:00 +24°C° 0 mm 8 m/s 751 mmHg 25%
    16:00 +23°C° 0 mm 8 m/s 751 mmHg 28%
    17:00 +22°C° 0 mm 8 m/s 752 mmHg 31%
    18:00 +21°C° 0 mm 7 m/s 752 mmHg 33%
    19:00 +20°C° 0 mm 7 m/s 753 mmHg 36%
    20:00 +19°C° 0 mm 6 m/s 753 mmHg 38%
    21:00 +19°C° 0 mm 6 m/s 754 mmHg 41%
    22:00 +17°C° 0 mm 6 m/s 754 mmHg 43%
    23:00 +16°C° 0 mm 5 m/s 754 mmHg 46%

    Après-demain, 27 Février, Jeudi

    Heure Température Précipitation Vent Pression Humidité
    00:00 +16°C° 0 mm 5 m/s 754 mmHg 48%
    01:00 +15°C° 0 mm 5 m/s 754 mmHg 50%
    02:00 +14°C° 0 mm 5 m/s 754 mmHg 52%
    03:00 +14°C° 0 mm 5 m/s 754 mmHg 53%
    04:00 +13°C° 0 mm 5 m/s 755 mmHg 53%
    05:00 +13°C° 0 mm 5 m/s 755 mmHg 52%
    06:00 +13°C° 0 mm 4 m/s 756 mmHg 52%
    07:00 +14°C° 0 mm 4 m/s 756 mmHg 47%
    08:00 +16°C° 0 mm 3 m/s 757 mmHg 43%
    09:00 +17°C° 0 mm 3 m/s 757 mmHg 39%
    10:00 +18°C° 0 mm 3 m/s 757 mmHg 37%
    11:00 +19°C° 0 mm 2 m/s 757 mmHg 36%
    12:00 +20°C° 0 mm 2 m/s 756 mmHg 34%
    13:00 +20°C° 0 mm 2 m/s 756 mmHg 32%
    14:00 +21°C° 0 mm 2 m/s 756 mmHg 29%
    15:00 +21°C° 0 mm 2 m/s 755 mmHg 26%
    16:00 +21°C° 0 mm 2 m/s 755 mmHg 28%
    17:00 +21°C° 0 mm 1 m/s 755 mmHg 30%
    18:00 +20°C° 0 mm 1 m/s 755 mmHg 32%
    19:00 +20°C° 0 mm 1 m/s 756 mmHg 33%
    20:00 +19°C° 0 mm 1 m/s 756 mmHg 34%
    21:00 +18°C° 0 mm 2 m/s 757 mmHg 34%
    22:00 +18°C° 0 mm 1 m/s 757 mmHg 37%
    23:00 +16°C° 0 mm 1 m/s 757 mmHg 39%

    28 Février, Vendredi

    Heure Température Précipitation Vent Pression Humidité
    00:00 +16°C° 0 mm 1 m/s 757 mmHg 41%
    01:00 +15°C° 0 mm 1 m/s 757 mmHg 43%
    02:00 +14°C° 0 mm 1 m/s 756 mmHg 45%
    03:00 +13°C° 0 mm 0 m/s 756 mmHg 46%
    04:00 +12°C° 0 mm 0 m/s 756 mmHg 48%
    05:00 +12°C° 0 mm 0 m/s 756 mmHg 49%
    06:00 +12°C° 0 mm 0 m/s 756 mmHg 50%
    07:00 +15°C° 0 mm 1 m/s 757 mmHg 45%
    08:00 +16°C° 0 mm 1 m/s 757 mmHg 40%
    09:00 +19°C° 0 mm 1 m/s 758 mmHg 35%
    10:00 +20°C° 0 mm 1 m/s 757 mmHg 33%
    11:00 +22°C° 0 mm 1 m/s 757 mmHg 31%
    12:00 +23°C° 0 mm 1 m/s 757 mmHg 29%
    13:00 +23°C° 0 mm 1 m/s 756 mmHg 27%
    14:00 +24°C° 0 mm 1 m/s 756 mmHg 26%
    15:00 +24°C° 0 mm 1 m/s 756 mmHg 24%
    16:00 +23°C° 0 mm 1 m/s 755 mmHg 26%
    17:00 +22°C° 0 mm 1 m/s 755 mmHg 28%
    18:00 +21°C° 0 mm 1 m/s 755 mmHg 30%
    19:00 +20°C° 0 mm 2 m/s 756 mmHg 31%
    20:00 +19°C° 0 mm 2 m/s 756 mmHg 32%
    21:00 +19°C° 0 mm 2 m/s 756 mmHg 33%
    22:00 +18°C° 0 mm 2 m/s 756 mmHg 35%
    23:00 +17°C° 0 mm 2 m/s 756 mmHg 37%

    29 Février, Samedi

    Heure Température Précipitation Vent Pression Humidité
    00:00 +17°C° 0 mm 2 m/s 756 mmHg 38%
    01:00 +16°C° 0 mm 2 m/s 755 mmHg 39%
    02:00 +16°C° 0 mm 3 m/s 755 mmHg 40%
    03:00 +16°C° 0 mm 3 m/s 754 mmHg 40%
    04:00 +16°C° 0 mm 3 m/s 754 mmHg 41%
    05:00 +14°C° 0 mm 3 m/s 754 mmHg 41%
    06:00 +14°C° 0 mm 4 m/s 754 mmHg 42%
    07:00 +15°C° 0 mm 4 m/s 754 mmHg 39%
    08:00 +18°C° 0 mm 4 m/s 754 mmHg 36%
    09:00 +19°C° 0 mm 4 m/s 754 mmHg 33%
    10:00 +20°C° 0 mm 4 m/s 754 mmHg 30%
    11:00 +21°C° 0 mm 4 m/s 754 mmHg 27%
    12:00 +23°C° 0 mm 4 m/s 753 mmHg 24%
    13:00 +24°C° 0 mm 3 m/s 753 mmHg 23%
    14:00 +24°C° 0 mm 2 m/s 752 mmHg 23%
    15:00 +25°C° 0 mm 2 m/s 752 mmHg 22%
    16:00 +24°C° 0 mm 1 m/s 752 mmHg 24%
    17:00 +22°C° 0 mm 1 m/s 752 mmHg 27%
    18:00 +19°C° 0 mm 0 m/s 752 mmHg 30%
    19:00 +19°C° 0 mm 0 m/s 753 mmHg 30%
    20:00 +20°C° 0 mm 1 m/s 753 mmHg 31%
    21:00 +20°C° 0 mm 1 m/s 753 mmHg 32%
    22:00 +19°C° 0 mm 2 m/s 753 mmHg 32%
    23:00 +19°C° 0 mm 2 m/s 753 mmHg 33%

    1 Mars, Dimanche

    Heure Température Précipitation Vent Pression Humidité
    00:00 +19°C° 0 mm 3 m/s 753 mmHg 33%
    01:00 +19°C° 0 mm 4 m/s 753 mmHg 35%
    02:00 +18°C° 0 mm 4 m/s 753 mmHg 37%
    03:00 +17°C° 0 mm 5 m/s 753 mmHg 39%
    04:00 +16°C° 0 mm 5 m/s 753 mmHg 39%
    05:00 +17°C° 0 mm 4 m/s 753 mmHg 39%
    06:00 +15°C° 0 mm 4 m/s 753 mmHg 39%
    07:00 +17°C° 0 mm 5 m/s 753 mmHg 36%
    08:00 +19°C° 0 mm 6 m/s 753 mmHg 33%
    09:00 +21°C° 0 mm 6 m/s 754 mmHg 30%
    10:00 +22°C° 0 mm 7 m/s 753 mmHg 29%
    11:00 +23°C° 0 mm 7 m/s 753 mmHg 28%
    12:00 +24°C° 0 mm 7 m/s 753 mmHg 27%
    13:00 +26°C° 0 mm 7 m/s 752 mmHg 25%
    14:00 +26°C° 0 mm 7 m/s 752 mmHg 24%
    15:00 +26°C° 0 mm 7 m/s 751 mmHg 23%
    16:00 +24°C° 0 mm 7 m/s 752 mmHg 26%
    17:00 +23°C° 0 mm 6 m/s 752 mmHg 30%
    18:00 +22°C° 0 mm 6 m/s 752 mmHg 33%
    19:00 +22°C° 0 mm 5 m/s 753 mmHg 35%
    20:00 +21°C° 0 mm 5 m/s 753 mmHg 38%
    21:00 +21°C° 0 mm 4 m/s 753 mmHg 40%
    22:00 +20°C° 0 mm 4 m/s 753 mmHg 42%
    23:00 +20°C° 0 mm 4 m/s 753 mmHg 44%
    Voir plus